Weather observations for the past three days for
Devils Lake, Devils Lake Municipal Airport
Imperial (Metric)
Date Time (cdt) Wind (mph) Vis. (mi.) Weather Sky Cond. Temperature (ºF) Relative Humidity Wind Chill (°F) Heat Index (°F) Pressure Precipitation (in)
Air Dwpt 6 hour altimeter (in) sea level (mb) 1 hr 3 hr 6 hr
Max. Min.
25 11:56 W 22 G 29 10.00 Fair and Breezy CLR 75.9 46.9 36% 78 29.83 1010.0
25 10:56 W 17 10.00 Fair CLR 75 50 42% 78 29.82 1009.5
25 09:56 NW 12 10.00 Fair CLR 73 53.1 50% 29.81 1009.3
25 08:56 NW 13 10.00 Fair CLR 70 55 59% 29.8 1008.8
25 07:56 NW 12 10.00 Fair CLR 66.9 55.9 68% 29.8 1008.8
25 06:56 W 9 10.00 Fair CLR 63 57 64 57.9 81% 29.8 1008.9
25 05:56 W 7 10.00 Fair CLR 59 55 87% 29.78 1008.5
25 04:56 W 7 10.00 Fair CLR 60.1 55.9 86% 29.77 1007.8
25 03:56 SW 9 10.00 Fair CLR 62.1 55.9 80% 29.76 1007.6
25 02:56 SW 9 10.00 Fair CLR 64 55.9 75% 29.76 1007.4
25 01:56 W 9 10.00 Fair CLR 61 54 78% 29.74 1007.0
25 00:56 NW 9 10.00 Fair CLR 64 54 79 64 70% 29.73 1006.7
24 23:56 W 10 10.00 Fair CLR 66 55.9 70% 29.72 1006.3
24 22:56 NW 12 10.00 Fair CLR 68 55.9 65% 29.71 1006.0
24 21:56 NW 9 10.00 Fair CLR 69.1 57.9 68% 29.7 1005.7
24 20:56 NW 13 10.00 Fair CLR 73.9 60.1 62% 29.68 1005.0
24 19:56 NW 10 10.00 Fair CLR 77 60.1 56% 79 29.67 1004.7
24 17:56 NW 16 G 21 10.00 Fair CLR 81 57 44% 81 29.67 1004.6
24 16:56 NW 17 10.00 Fair CLR 82.9 59 44% 83 29.68 1004.5
24 15:56 W 16 10.00 Fair CLR 84 63 49% 85 29.68 1004.5
24 14:56 W 15 10.00 Fair CLR 82.9 66.9 59% 86 29.68 1004.6
24 13:56 W 16 10.00 Fair CLR 82 71.1 69% 86 29.67 1004.5
24 12:56 SW 12 10.00 Fair CLR 79 69.1 79 63 72% 82 29.67 1004.5 0.09
24 11:56 S 18 10.00 Fair CLR 79 69.1 72% 82 29.65 1003.8
24 10:56 S 14 10.00 Fair CLR 73 66.9 81% 29.66 1004.2
24 09:56 SE 13 10.00 A Few Clouds FEW120 66.9 63 87% 29.67 1004.9 0.09
24 08:56 E 10 10.00 Fair CLR 64.9 62.1 90% 29.72 1006.6 0.02
24 07:56 E 6 10.00 Light Rain FEW042 BKN085 BKN120 64 60.1 87% 29.78 1008.5 0.07
24 06:56 Calm 7.00 Rain OVC110 63 60.1 66 63 90% 29.81 1009.6 0.01 0.01
24 05:56 NE 7 G 16 10.00 Light Rain FEW046 SCT110 63 59 87% 29.75 1007.3
24 04:56 E 13 10.00 Rain FEW043 BKN070 OVC110 64 59 84% 29.78 1008.5
24 03:56 E 9 10.00 A Few Clouds FEW100 64 57.9 81% 29.79 1008.8
24 02:56 SE 10 10.00 Fair CLR 64.9 59 81% 29.79 1008.9
24 01:56 SE 14 G 23 10.00 Fair CLR 66 59 78% 29.76 1007.7
24 00:56 SE 14 G 20 10.00 Fair CLR 66 60.1 75 66 81% 29.79 1008.8
23 23:56 SE 10 10.00 Fair CLR 66.9 60.1 79% 29.81 1009.6
23 22:56 SE 9 10.00 Fair CLR 66.9 59 76% 29.83 1010.2
23 21:56 SE 8 10.00 Fair CLR 68 60.1 76% 29.83 1010.4
23 20:56 SE 7 10.00 Fair CLR 71.1 60.1 68% 29.83 1010.3
23 19:56 SE 6 10.00 Fair CLR 73.9 59 60% 29.84 1010.6
23 18:56 Calm 8.00 Fair CLR 75 57 75 69.1 54% 78 29.85 1011.0
23 17:56 Calm 10.00 Fair CLR 73.9 55 52% 29.87 1011.7
23 16:56 Calm 10.00 Fair CLR 73 55 53% 29.89 1012.2
23 15:56 W 6 10.00 Fair CLR 73 55 53% 29.9 1012.7
23 14:56 N 7 10.00 Fair CLR 71.1 55.9 59% 29.9 1012.7
23 13:56 Vrbl 5 10.00 Mostly Cloudy BKN032 71.1 57.9 63% 29.92 1013.2
23 12:56 NW 8 10.00 Fair CLR 69.1 57 70 59 66% 29.92 1013.3
23 11:56 N 7 10.00 Partly Cloudy SCT019 68 59 73% 29.92 1013.2
23 10:56 N 10 10.00 Mostly Cloudy BKN013 66 59 78% 29.91 1013.2
23 09:56 N 8 10.00 A Few Clouds FEW013 66 60.1 81% 29.9 1012.8
23 08:56 NW 9 10.00 Fair CLR 64.9 59 81% 29.9 1012.7
23 07:56 NW 8 10.00 Fair CLR 62.1 59 90% 29.9 1012.7
23 06:56 NW 5 10.00 Fair CLR 59 57 62.1 57 93% 29.88 1012.2
23 05:56 W 8 10.00 Fair CLR 57.9 55.9 93% 29.87 1011.9
23 04:56 W 7 10.00 Fair CLR 60.1 57.9 93% 29.86 1011.6
23 03:56 SW 6 10.00 Fair CLR 59 57.9 96% 29.86 1011.4
23 02:56 W 7 10.00 Partly Cloudy FEW050 SCT075 61 60.1 97% 29.86 1011.5
23 01:56 SW 7 10.00 Fair CLR 62.1 60.1 93% 29.87 1011.5
23 00:56 SE 3 10.00 A Few Clouds FEW120 62.1 60.1 72 61 93% 29.87 1011.9
22 23:56 Calm 10.00 Fair CLR 62.1 60.1 93% 29.89 1012.3
22 22:56 Calm 10.00 Fair CLR 62.1 60.1 93% 29.89 1012.3
22 21:56 NE 13 10.00 Fair CLR 64.9 59 81% 29.88 1012.0
22 20:56 SW 3 10.00 A Few Clouds FEW042 69.1 63 81% 29.85 1010.9
22 19:56 S 6 10.00 Fair CLR 70 63 79% 29.85 1011.0
22 18:56 Calm 9.00 Fair CLR 72 62.1 73.9 63 71% 29.85 1011.0 0.44
22 17:56 Calm 10.00 Partly Cloudy FEW048 SCT070 68 62.1 81% 29.87 1011.6 0.17
22 16:56 NW 10 G 21 1.50 Thunderstorm Heavy Rain SCT013 BKN030 OVC055 66 60.1 81% 29.88 1012.2 0.27
22 15:56 S 7 10.00 Partly Cloudy FEW045 SCT070 73 61 66% 29.88 1011.9
22 14:56 S 6 10.00 Mostly Cloudy SCT021 BKN031 BKN070 71.1 62.1 73% 29.89 1012.4
22 13:56 Vrbl 6 10.00 Mostly Cloudy FEW021 BKN070 71.1 62.1 73% 29.9 1012.5
22 12:56 S 8 10.00 Partly Cloudy SCT019 69.1 61 70 62.1 76% 29.91 1012.9
Date Time (cdt) Wind (mph) Vis. (mi.) Weather Sky Cond. Air Dwpt Max. Min. Relative Humidity Wind Chill (°F) Heat Index (°F) altimeter (in) sea level (mb) 1 hr 3 hr 6 hr
6 hour
Temperature (ºF) Pressure Precipitation (in)